Tracking 19199 objects as of 25-Jun-2018
HD Live streaming from Space Station
objects crossing your sky now

SL-16 DEB

Track SL-16 DEB now!
10-day predictions


NORAD ID: 36030
Int'l Code: 1996-051M
Perigee: 636.5 km
Apogee: 678.8 km
Inclination: 70.9 °
Period: 97.7 minutes
Semi major axis: 7028 km
RCS: 0.0174 m2 (small)
Launch date: September 4, 1996
Source: Commonwealth of Independent States (former USSR) (CIS)
Launch site: TYURATAM MISSILE AND SPACE COMPLEX (TTMTR)

Note: This is SATELLITE DEBRIS
aabbcc
Your satellite tracking list
Your tracking list is empty




NASA's NSSDC Master Catalog

Two Line Element Set (TLE):
1 36030U 96051M   18175.01562087  .00007240  00000-0  11191-2 0  9992
2 36030  70.8599  53.9465 0030080 156.7137 203.5386 14.73309315456924
Source of the keplerian elements: AFSPC